Date String (YYYY-MM-DD hh:mm:ss) UTC,Instrument flags,Ambient pressure (hPa),Sample flow (lpm),Bypass flow (lpm),Sample temperature (°C),Ambient temperature (°C),ASC tube jacket temperature (°C),LED temperature (°C),Box temperature (°C),Sample RH (%),Span deviation,Mass concentration (μg/m³),Mass concentration (μg/m³),Mass concentration (μg/m³)
DateTimeUTC,F1_M11,P_M11,Q1_M11,Q2_M11,T1_M11,T2_M11,T3_M11,T4_M11,T5_M11,U1_M11,ZSPAN_M11,X0_M11,X2_M11,X1_M11
2022-07-19 20:00:00,,0826.7,4.99,0.00,29.2,27.0,00.0,37.7,31.0,23.0,0000.0,0012.03,0005.46,0004.19
2022-07-19 20:01:00,,0826.6,5.01,0.00,29.1,27.1,00.0,37.7,30.9,22.9,0000.0,0012.54,0005.54,0004.19
2022-07-19 20:02:00,,0826.6,5.00,0.00,29.1,27.3,00.0,37.8,31.0,22.7,0000.0,0012.65,0005.58,0004.20
2022-07-19 20:03:00,,0826.7,4.99,0.00,29.1,27.6,00.0,37.8,31.0,22.7,0000.0,0012.51,0005.61,0004.21
2022-07-19 20:04:00,,0826.7,5.01,0.00,29.2,27.7,00.0,37.8,31.1,22.8,0000.0,0013.27,0005.62,0004.21
2022-07-19 20:05:00,,0826.7,4.99,0.00,29.1,27.2,00.0,37.7,31.0,22.5,0000.0,0014.38,0005.62,0004.22
2022-07-19 20:06:00,,0826.7,5.00,0.00,29.1,27.0,00.0,37.7,30.9,22.7,0000.0,0014.87,0005.63,0004.24
2022-07-19 20:07:00,,0826.7,5.00,0.00,29.1,27.2,00.0,37.7,30.9,22.7,0000.0,0014.34,0005.61,0004.26
2022-07-19 20:08:00,,0826.7,4.99,0.00,29.0,27.3,00.0,37.7,30.9,22.4,0000.0,0014.56,0005.59,0004.27
2022-07-19 20:09:00,,0826.7,5.00,0.00,29.1,27.5,00.0,37.8,30.9,22.7,0000.0,0014.70,0005.61,0004.27
2022-07-19 20:10:00,,0826.7,5.00,0.00,29.1,27.7,00.0,37.8,31.0,22.8,0000.0,0015.60,0005.66,0004.28
2022-07-19 20:11:00,,0826.7,5.00,0.00,29.1,27.8,00.0,37.8,31.1,22.5,0000.0,0015.46,0005.66,0004.30
2022-07-19 20:12:00,,0826.7,5.00,0.00,29.1,27.3,00.0,37.7,31.0,22.6,0000.0,0014.96,0005.60,0004.31
2022-07-19 20:13:00,,0826.6,5.00,0.00,29.0,27.1,00.0,37.7,30.9,22.5,0000.0,0014.54,0005.51,0004.29
2022-07-19 20:14:00,,0826.6,4.99,0.00,29.0,27.2,00.0,37.7,30.9,22.4,0000.0,0014.55,0005.44,0004.26
2022-07-19 20:15:00,,0826.6,5.00,0.00,29.0,27.3,00.0,37.7,30.9,22.5,0000.0,0014.05,0005.36,0004.22
2022-07-19 20:16:00,,0826.6,5.00,0.00,29.0,27.6,00.0,37.7,31.0,22.7,0000.0,0013.13,0005.32,0004.18
2022-07-19 20:17:00,,0826.7,4.99,0.00,29.1,27.7,00.0,37.8,31.0,22.7,0000.0,0012.56,0005.28,0004.16
2022-07-19 20:18:00,,0826.7,5.01,0.00,29.1,27.4,00.0,37.7,31.0,22.7,0000.0,0012.23,0005.27,0004.13
2022-07-19 20:19:00,,0826.6,5.00,0.00,29.0,27.0,00.0,37.7,30.8,22.9,0000.0,0012.26,0005.25,0004.09
2022-07-19 20:20:00,,0826.5,5.00,0.00,29.0,27.1,00.0,37.7,30.8,23.0,0000.0,0012.18,0005.22,0004.06
2022-07-19 20:21:00,,0826.5,5.00,0.00,29.0,27.2,00.0,37.7,30.8,23.0,0000.0,0011.41,0005.15,0004.04
2022-07-19 20:22:00,,0826.5,5.00,0.00,29.0,27.4,00.0,37.7,30.9,23.0,0000.0,0011.39,0005.11,0004.01
2022-07-19 20:23:00,,0826.5,5.01,0.00,29.0,27.6,00.0,37.7,31.0,23.0,0000.0,0011.53,0005.05,0003.98
2022-07-19 20:24:00,,0826.5,5.00,0.00,29.1,27.6,00.0,37.7,31.0,22.9,0000.0,0011.53,0005.06,0003.97
2022-07-19 20:25:00,,0826.6,5.01,0.00,29.0,27.1,00.0,37.6,30.9,22.8,0000.0,0011.97,0005.04,0003.98
2022-07-19 20:26:00,,0826.5,5.00,0.00,28.9,26.7,00.0,37.6,30.7,22.9,0000.0,0011.60,0005.05,0003.99
2022-07-19 20:27:00,,0826.5,5.00,0.00,28.9,26.8,00.0,37.6,30.7,23.1,0000.0,0011.84,0005.09,0004.00
2022-07-19 20:28:00,,0826.5,5.00,0.00,28.9,26.9,00.0,37.6,30.7,23.3,0000.0,0011.68,0005.08,0004.00
2022-07-19 20:29:00,,0826.5,5.00,0.00,28.9,27.1,00.0,37.6,30.7,23.3,0000.0,0011.66,0005.07,0003.99
2022-07-19 20:30:00,,0826.5,5.01,0.00,28.9,27.4,00.0,37.6,30.8,22.9,0000.0,0011.13,0005.05,0003.99
2022-07-19 20:31:00,,0826.5,4.99,0.00,28.9,27.6,00.0,37.6,30.9,22.4,0000.0,0011.34,0005.02,0003.98
2022-07-19 20:32:00,,0826.5,4.99,0.00,29.0,27.6,00.0,37.6,30.9,22.2,0000.0,0012.00,0005.01,0003.97
2022-07-19 20:33:00,,0826.5,5.01,0.00,28.9,27.1,00.0,37.6,30.8,22.5,0000.0,0012.00,0004.99,0003.96
2022-07-19 20:34:00,,0826.5,5.00,0.00,28.9,27.0,00.0,37.6,30.8,22.8,0000.0,0011.76,0004.95,0003.95
2022-07-19 20:35:00,,0826.5,5.00,0.00,28.9,27.2,00.0,37.6,30.8,23.3,0000.0,0012.08,0004.94,0003.94
2022-07-19 20:36:00,,0826.4,4.99,0.00,28.9,27.3,00.0,37.6,30.8,23.3,0000.0,0011.82,0004.98,0003.94
2022-07-19 20:37:00,,0826.4,5.00,0.00,28.9,27.5,00.0,37.6,30.9,22.9,0000.0,0011.53,0004.97,0003.93
2022-07-19 20:38:00,,0826.5,5.00,0.00,29.0,27.8,00.0,37.6,31.0,22.9,0000.0,0011.40,0005.00,0003.93
2022-07-19 20:39:00,,0826.4,5.02,0.00,29.0,27.7,00.0,37.6,31.0,22.8,0000.0,0011.53,0004.96,0003.92
2022-07-19 20:40:00,,0826.5,5.00,0.00,28.9,27.1,00.0,37.6,30.8,22.4,0000.0,0011.62,0004.92,0003.91
2022-07-19 20:41:00,,0826.5,5.02,0.00,28.9,26.8,00.0,37.5,30.7,22.7,0000.0,0011.48,0004.89,0003.91
2022-07-19 20:42:00,,0826.5,4.99,0.00,28.9,26.8,00.0,37.5,30.7,22.9,0000.0,0011.24,0004.89,0003.91
2022-07-19 20:43:00,,0826.5,5.00,0.00,28.8,27.0,00.0,37.5,30.7,22.8,0000.0,0010.52,0004.93,0003.91
2022-07-19 20:44:00,,0826.5,5.00,0.00,28.8,27.2,00.0,37.6,30.7,23.0,0000.0,0010.43,0004.97,0003.90
2022-07-19 20:45:00,,0826.5,4.99,0.00,28.9,27.4,00.0,37.6,30.8,22.8,0000.0,0010.89,0005.02,0003.92
2022-07-19 20:46:00,,0826.5,5.01,0.00,28.9,27.7,00.0,37.6,30.9,23.0,0000.0,0010.95,0005.02,0003.93
2022-07-19 20:47:00,,0826.5,4.99,0.00,29.0,27.6,00.0,37.6,30.9,22.9,0000.0,0011.36,0005.02,0003.93
2022-07-19 20:48:00,,0826.5,5.00,0.00,28.9,27.2,00.0,37.6,30.8,22.8,0000.0,0012.57,0005.06,0003.95
2022-07-19 20:49:00,,0826.5,5.00,0.00,28.9,27.2,00.0,37.5,30.8,22.7,0000.0,0012.37,0005.05,0003.96
2022-07-19 20:50:00,,0826.5,5.00,0.00,28.9,27.3,00.0,37.6,30.8,23.1,0000.0,0012.48,0005.11,0003.98
2022-07-19 20:51:00,,0826.4,5.00,0.00,28.9,27.4,00.0,37.6,30.8,23.2,0000.0,0012.90,0005.21,0004.00
2022-07-19 20:52:00,,0826.4,5.01,0.00,28.9,27.7,00.0,37.6,30.9,23.8,0000.0,0013.23,0005.27,0004.03
2022-07-19 20:53:00,,0826.4,5.00,0.00,29.0,27.8,00.0,37.6,31.0,24.0,0000.0,0013.24,0005.31,0004.07
2022-07-19 20:54:00,,0826.4,5.01,0.00,29.0,27.4,00.0,37.6,30.9,23.9,0000.0,0013.30,0005.36,0004.11
2022-07-19 20:55:00,,0826.3,5.00,0.00,28.9,27.1,00.0,37.5,30.8,24.1,0000.0,0013.23,0005.37,0004.15
2022-07-19 20:56:00,,0826.3,4.99,0.00,28.9,27.2,00.0,37.6,30.8,24.1,0000.0,0012.74,0005.39,0004.17
2022-07-19 20:57:00,,0826.2,5.00,0.00,28.9,27.3,00.0,37.6,30.8,24.1,0000.0,0013.07,0005.45,0004.19
2022-07-19 20:58:00,,0826.2,5.00,0.00,28.9,27.5,00.0,37.6,30.9,24.0,0000.0,0013.53,0005.45,0004.20
2022-07-19 20:59:00,,0826.2,5.00,0.00,29.0,27.7,00.0,37.6,30.9,23.9,0000.0,0012.51,0005.47,0004.21
